Location: Le Domaine
(47.0333°N, 76.5361°W)
Time: 03:58:21
(UTC-05:00)

S-56A Canister/Altair - Pass Details

Date: 28 November 2019
Orbit: 633 x 2500 km, 38.9° (Epoch: 09 December)

Event Time Altitude Azimuth Distance (km) Brightness Sun altitude
Rises 19:35:18 0° 277° (W) 4,998 12.8 -32.5°
Reaches altitude 10° 19:39:52 10° 264° (W) 3,639 11.8 -33.3°
Maximum altitude 19:46:07 22° 220° (SW) 2,342 10.2 -34.4°
Enters shadow 19:48:36 18° 192° (SSW) 2,347 10.0 -34.8°
Drops below altitude 10° 19:50:56 10° 172° (S) 2,694 - -35.2°
Sets 19:53:44 0° 155° (SSE) 3,414 - -35.7°
